Joseph Omurwa

Olheiro-Chefe - Mathare United
20 Fev 2028
Domingo
Processo

Personalidade

Adaptabilidade (4) Ambição (12) Controvérsia (11) Lealdade (11) Pressão (9) Profissionalismo (10) Espírito Esportivo (11) Temperamento (8)

Perfil

Estilo de Treinamento Democrático
Licença Nacional A
Determinação 7
Gestão de Pessoas 3
Motivação 6
Disciplina 2
Satisfação no Trabalho
100%
Fadiga
0%
Função Olheiro-Chefe
Salário 29.2K p/s
Contrato 14.03.2030

Desempenho

Comportamento Bom
Eficácia do Treinamento
30%
Desenvolvimento do Jogador
20%
Prevenção de Lesões
15%
Implementação Tática
25%

Eventos Recentes

Avaliou um jogador agora
Participou de uma reunião de recrutamento agora
Avaliou um jogador agora
Avaliou um jogador agora
Observou uma partida agora
Avaliou um jogador 7d atrás
Avaliou um jogador 7d atrás
Avaliou um jogador 7d atrás

Monitorando agora

199
Jogador Clube Status Habilidade Confiança Observado Última observação Último voto
Thabiso Msane BA All Stars Ativo 100 / 95 40% 4 19.02.2028 -
Olwethu Ncube Golden Arrows Ativo 107 / 91 40% 7 19.02.2028 -
Bruno Figueiredo Zabbar St. Patrick Ativo 95 / 84 40% 2 19.02.2028 -
Jordan Houghton Stevenage Ativo 123 / 112 40% 1 19.02.2028 -
Qamar Adegoke Shooting Stars Ativo 74 / 85 40% 5 17.02.2028 -
Destiny Efosa Egharevba Picerno Ativo 125 / 94 40% 1 17.02.2028 -
Kyle Knoyle Mansfield Town Ativo 101 / 107 40% 1 15.02.2028 -
Owen Foye Swindon Town Ativo 90 / 79 40% 1 15.02.2028 -
Cailin Knock FC Diarra Ativo 80 / 77 40% 1 14.02.2028 -
Mercury Dlamini US Bougouni Ativo 108 / 88 40% 1 14.02.2028 -
Ernest Addo Asante Kotoko Ativo 82 / 80 40% 5 13.02.2028 -
Amadou Makhtarlayi Sarr Trapani Ativo 95 / 89 40% 3 13.02.2028 -
Abdulaziz Dalhatu Inter Allies Ativo 85 / 103 40% 2 13.02.2028 -
Víctor Lanosa Bristol Rovers Ativo 78 / 104 40% 1 13.02.2028 -
Gethin Jones Milton Keynes Dons Ativo 100 / 117 40% 1 12.02.2028 -
Ben Radcliffe Crawley Town Ativo 92 / 88 40% 1 12.02.2028 -
Ezekiel Edidiong Enyimba Ativo 89 / 79 40% 2 10.02.2028 -
Timothy Atamenwan US Bougouba Ativo 106 / 101 40% 1 10.02.2028 -
Logan Briggs Picerno Ativo 95 / 83 40% 1 10.02.2028 -
Oliver Rathbone Wrexham Ativo 131 / 109 40% 1 07.02.2028 -
Sulayman Jallow Vis Pesaro Ativo 91 / 112 40% 1 07.02.2028 -
Sunday Akinbule US Forces Armees Ativo 102 / 74 40% 1 07.02.2028 -
Macula Birkirkara Ativo 86 / 90 40% 2 05.02.2028 -
Carlos Richards Bromley Ativo 84 / 89 40% 1 05.02.2028 -
Dan Edwards Fortuna Mfou Ativo 105 / 93 40% 1 03.02.2028 -
Ricardo Dinanga Shrewsbury Town Ativo 111 / 92 40% 1 03.02.2028 -
Enock Asubonteng Hearts of Oak Ativo 91 / 90 40% 1 02.02.2028 -
Benson Omalla Nairobi United Ativo 90 / 96 40% 10 01.02.2028 -
Hassan Beja AFC Leopards Ativo 102 / 98 40% 2 01.02.2028 -
Joseph Mwangi Kariobangi Sharks Ativo 90 / 66 40% 3 01.02.2028 -
Vincent Owino Tusker Ativo 69 / 81 40% 1 01.02.2028 -
Boniface Onyango Kakamega Homeboyz Ativo 96 / 91 40% 1 31.01.2028 -
Vincent Mahiga AFC Leopards Ativo 72 / 84 40% 1 31.01.2028 -
Derrick Otanga Kakamega Homeboyz Ativo 86 / 94 40% 6 30.01.2028 -
Enrico Baldini Bra Ativo 112 / 94 40% 1 29.01.2028 -
Mandla Dolly Black Aces Ativo 78 / 77 40% 2 28.01.2028 -
Paul Odhiambo Ulinzi Stars Ativo 83 / 67 40% 1 28.01.2028 -
William Wadri Bandari Ativo 92 / 68 40% 10 27.01.2028 -
Oratile Rantasi Etoiles du Mande Ativo 87 / 89 40% 2 26.01.2028 -
Mohammed Katana Elect Sport Ativo 70 / 75 40% 1 26.01.2028 -
Michael Jairo Elect Sport Ativo 63 / 85 40% 3 24.01.2028 -
Keegan Ndemi Kariobangi Sharks Ativo 70 / 77 40% 2 24.01.2028 -
Ibrahim Shambi Ulinzi Stars Ativo 71 / 67 40% 2 23.01.2028 -
Harrison Mwendwa Posta Rangers Ativo 93 / 80 40% 2 22.01.2028 -
Ian Simiyu Jr. Tusker Ativo 95 / 76 40% 3 22.01.2028 -
Japheth Lihanda Sofapaka Ativo 80 / 61 40% 1 21.01.2028 -
Collins Odhiambo Tusker Ativo 69 / 86 40% 1 21.01.2028 -
Alvin Mangeni Kenya Police Ativo 87 / 87 40% 5 20.01.2028 -
Hassan Abdallah Bandari Ativo 92 / 82 40% 4 20.01.2028 -
Jackson Dwang Posta Rangers Ativo 83 / 76 40% 1 19.01.2028 -
Dennis Oalo Tusker Ativo 84 / 79 40% 6 18.01.2028 -
Ben Thompson Burton Albion Ativo 108 / 91 40% 1 18.01.2028 -
Humphrey Obina Shabana Ativo 63 / 63 40% 1 18.01.2028 -
Clinton Omondi Ulinzi Stars Ativo 89 / 68 40% 4 17.01.2028 -
Thomas Wainaina Bidco United Ativo 86 / 78 40% 1 17.01.2028 -
Danny Cashman Crawley Town Ativo 81 / 80 40% 2 16.01.2028 -
Emile Samyn Giana Erminio Ativo 77 / 85 40% 1 16.01.2028 -
Sven Yidah APS Bomet Ativo 95 / 91 40% 3 14.01.2028 -
Yves Koutiama Kenya Police Ativo 93 / 87 40% 2 14.01.2028 -
Hansel Ochieng APS Bomet Ativo 74 / 81 40% 2 13.01.2028 -
Mohammed Siraji Gor Mahia Ativo 78 / 79 40% 1 13.01.2028 -
Alfred Emoni Bandari Ativo 95 / 92 40% 12 12.01.2028 -
Erick Zakayo Kenya Police Ativo 94 / 84 40% 1 10.01.2028 -
Hernest Malonga Kenya Police Ativo 99 / 97 40% 1 10.01.2028 -
John Njuguna Nairobi United Ativo 77 / 71 40% 2 09.01.2028 -
Williams Yikat Aigle Royal de Moungo Ativo 81 / 112 40% 1 09.01.2028 -
Alain Ngeleka Bandari Ativo 84 / 82 48% 1 07.01.2028 -
Vittorio Parigini Renate Ativo 96 / 96 40% 2 04.01.2028 -
David Ochieng Kenya Police Ativo 67 / 83 48% 1 02.01.2028 -
Elvis Mbugua Posta Rangers Ativo 53 / 57 48% 1 01.01.2028 -
Kelvin Akinmola Bendel Insurance Ativo 101 / 95 40% 3 29.12.2027 -
Daniel Kakai Bidco United Ativo 85 / 73 40% 1 29.12.2027 -
Victor Mbaoma Tusker Ativo 88 / 109 40% 3 25.12.2027 -
Erick Otieno Shabana Ativo 76 / 68 40% 4 24.12.2027 -
Kelvin Osas El-Kanemi Warriors Ativo 82 / 80 40% 1 24.12.2027 -
Chimobi Igwilo Rangers International Ativo 91 / 89 40% 7 22.12.2027 -
Patrick Otieno KCB Ativo 95 / 90 40% 3 22.12.2027 -
Ifeanyi Assurance Rangers International Rejeitado 100 / 88 40% 3 19.12.2027 Rejeitar
Dennis Munyovi Muranga Seal Ativo 86 / 68 40% 2 19.12.2027 -
Tobias Otieno Kenya Police Ativo 77 / 94 40% 1 18.12.2027 -
Idris Saidu Barau Ativo 81 / 95 40% 1 18.12.2027 -
Samuel Ssenyonjo AFC Leopards Ativo 79 / 75 40% 3 16.12.2027 -
Nicholas Kipkirui KCB Ativo 65 / 71 40% 4 15.12.2027 -
Jesse Akila Arab Contractors Ativo 89 / 96 40% 3 14.12.2027 -
Joseph Arumala Ikorodu City Ativo 76 / 87 40% 1 14.12.2027 -
Michael Fabbro Virtus Verona Ativo 114 / 84 40% 1 13.12.2027 -
John Kelly Fleetwood Town Ativo 98 / 99 40% 4 12.12.2027 -
Chisom Ngomere Kwara United Ativo 99 / 73 40% 4 12.12.2027 -
Liam Jessop Chesterfield Ativo 93 / 96 40% 1 12.12.2027 -
Boniface Munyendo AFC Leopards Rejeitado 93 / 89 40% 2 11.12.2027 Mais informações
Karim Smykov Muranga Seal Rejeitado 94 / 78 40% 2 11.12.2027 Mais informações
Chris Erambo Tusker Ativo 97 / 73 40% 1 10.12.2027 -
Gafar Saka Plateau United Ativo 85 / 86 40% 7 06.12.2027 -
Simon Munala Bidco United Ativo 93 / 74 40% 2 06.12.2027 -
Ibrahim Sabiu Bendel Insurance Ativo 106 / 102 40% 4 04.12.2027 -
Tosin Olawale El-Kanemi Warriors Ativo 80 / 107 40% 4 03.12.2027 -
Tyson Otieno AFC Leopards Ativo 87 / 83 40% 1 01.12.2027 -
Baraka Badi Kenya Police Ativo 75 / 82 40% 1 01.12.2027 -
Promise Itoro Bendel Insurance Ativo 101 / 86 40% 2 30.11.2027 -
Cliff Oruko Tusker Ativo 90 / 68 40% 3 27.11.2027 -
Yafeesi Mubiru KCB Ativo 88 / 70 40% 2 26.11.2027 -
Nyamawi Beja Bandari Ativo 81 / 85 40% 6 25.11.2027 -
Moise Mbombo Kenya Police Ativo 84 / 86 40% 1 25.11.2027 -
Amani Richards Zwolle Ativo 90 / 84 40% 2 23.11.2027 -
Johnmark Atule Shooting Stars Ativo 93 / 102 40% 4 23.11.2027 -
Joseph Atule Barau Ativo 112 / 84 40% 2 22.11.2027 -
James Emo Rangers International Ativo 97 / 88 40% 5 19.11.2027 -
Mustafa Kizza Nairobi United Ativo 84 / 89 40% 3 18.11.2027 -
Oussama Gatal Bandari Ativo 86 / 84 40% 2 18.11.2027 -
Omolabi Owolabi Kun Khalifat Ativo 58 / 65 40% 2 16.11.2027 -
Clinton Asiago Bidco United Ativo 79 / 83 40% 2 12.11.2027 -
Salomon Chigoziem Nasarawa United Ativo 98 / 103 40% 2 11.11.2027 -
Amza Moubarack Bandari Ativo 75 / 94 40% 1 11.11.2027 -
James Kinyanjui AFC Leopards Ativo 74 / 81 40% 3 09.11.2027 -
Chinedu Nwosu Bendel Insurance Ativo 77 / 109 40% 3 09.11.2027 -
Bassey John Enyimba Ativo 82 / 97 40% 3 09.11.2027 -
Onyia Henry Bendel Insurance Ativo 93 / 103 40% 2 07.11.2027 -
Felix Oluoch Gor Mahia Ativo 88 / 80 40% 3 06.11.2027 -
Suraju Lawal Abia Warriors Ativo 82 / 95 40% 1 04.11.2027 -
Aziz Okaka APS Bomet Ativo 62 / 66 40% 1 29.10.2027 -
Eromosele Zibiri Warri Wolves Ativo 85 / 76 40% 1 27.10.2027 -
Kieran Wilson Exeter City Ativo 75 / 90 40% 3 26.10.2027 -
Max Dickov Mansfield Town Ativo 98 / 96 40% 1 24.10.2027 -
Boniface Omondi Kakamega Homeboyz Ativo 85 / 90 40% 3 22.10.2027 -
Eric Kapaito Tusker Ativo 95 / 82 40% 5 16.10.2027 -
Patillah Omoto Kariobangi Sharks Ativo 80 / 75 40% 2 13.10.2027 -
David Sakwa Bandari Ativo 78 / 84 40% 5 13.10.2027 -
Jofrank Istifanus Nasarawa United Ativo 95 / 74 40% 2 10.10.2027 -
Joshua Akpan Shooting Stars Ativo 99 / 95 40% 3 06.10.2027 -
Rubén Hernández Police Union Ativo 100 / 97 40% 1 06.10.2027 -
Isaac Mintah Asante Kotoko Ativo 82 / 94 40% 1 06.10.2027 -
Mattia Veselji Floriana Ativo 98 / 76 40% 1 04.10.2027 -
Joshua John Nasarawa United Ativo 104 / 88 40% 2 03.10.2027 -
Sammy Henia-Kamau Colchester United Ativo 55 / 74 40% 1 02.10.2027 -
Alex Imbusia Mara Sugar Ativo 74 / 86 40% 1 27.09.2027 -
Victor Torisheju Bendel Insurance Ativo 83 / 81 40% 3 24.09.2027 -
Alao Dabani Nasarawa United Ativo 98 / 100 40% 3 23.09.2027 -
Solomon Odoemenam Kun Khalifat Ativo 76 / 84 40% 2 23.09.2027 -
Abubakar Taheer Shooting Stars Ativo 76 / 99 40% 3 15.09.2027 -
Rowland Makati KCB Ativo 77 / 65 40% 1 14.09.2027 -
Justice Apaingolo Binga Ativo 85 / 81 40% 1 08.09.2027 -
Daniel Mjengu Binga Ativo 72 / 87 40% 1 07.09.2027 -
Joseph Waithira Muranga Seal Ativo 72 / 88 40% 1 06.09.2027 -
Yakeen Muthelil Tusker Ativo 57 / 61 40% 1 03.09.2027 -
Adama Traoré Bidco United Ativo 79 / 82 40% 2 02.09.2027 -
Mohammed Aminu Ashanti Gold Ativo 83 / 75 40% 1 29.08.2027 -
Mxolisi Mthiya Real Bamako Ativo 60 / 86 40% 1 26.08.2027 -
Yusuff Adewale Afrique Foot Elite Ativo 96 / 88 40% 1 25.08.2027 -
Solomon Nsoh Asante Kotoko Ativo 90 / 74 40% 1 23.08.2027 -
Chinonso Chibueze Harrogate Town Ativo 85 / 86 40% 1 17.08.2027 -
Azeez Agboola Remo Stars Ativo 80 / 75 40% 3 16.08.2027 -
Simphiwe Masilela Aswan Ativo 75 / 71 40% 1 15.08.2027 -
Gosiame Ngobeni New Edubiase United Ativo 84 / 74 40% 1 13.08.2027 -
Olasunkanmi Quadri Enyimba Ativo 70 / 81 40% 2 04.08.2027 -
Ifeanyi Ihemekwele Enyimba Ativo 83 / 80 40% 1 30.07.2027 -
Bandile Shandu Orlando Pirates Ativo 108 / 95 40% 3 29.07.2027 -
Harvey Saunders Tranmere Rovers Ativo 102 / 94 40% 1 29.07.2027 -
Ronan Coughlan De Graafschap Ativo 81 / 94 40% 1 29.07.2027 -
Idris Ajiya Nasarawa United Ativo 69 / 104 40% 1 23.07.2027 -
Omari Patrick Swindon Town Ativo 111 / 91 40% 1 21.07.2027 -
Tyshick Mosengo Kenya Police Ativo 67 / 74 40% 3 16.07.2027 -
Jeremiah Okine-Peters Ospitaletto Ativo 74 / 90 40% 2 13.07.2027 -
Deruo Wisdom Etoiles du Mande Ativo 78 / 100 40% 1 07.07.2027 -
Ayanda Vete FC Diarra Ativo 59 / 90 40% 1 05.07.2027 -
Francis Kahiro KCB Ativo 66 / 89 40% 2 26.06.2027 -
Insa Badji Smouha Ativo 76 / 90 40% 1 25.06.2027 -
Make Aldo Maulidino Gazelle Ativo 89 / 77 40% 2 22.06.2027 -
Will Merry Milton Keynes Dons Ativo 83 / 90 40% 1 13.06.2027 -
Michael Karamor Nairobi United Ativo 65 / 76 40% 1 13.06.2027 -
Josephat Lopaga Kakamega Homeboyz Ativo 91 / 95 40% 1 12.06.2027 -
Callum Stewart Shrewsbury Town Ativo 66 / 96 40% 1 09.06.2027 -
Ernest Amoah BA All Stars Ativo 95 / 77 40% 1 08.06.2027 -
Fuzy Taylor Medeama Ativo 81 / 85 40% 1 08.06.2027 -
Ufere Chukwu Enyimba Ativo 92 / 93 40% 1 28.05.2027 -
Mahamat Adam Ali AS PSI Ativo 92 / 82 40% 1 20.04.2027 -
Charles Bassey Smouha Ativo 84 / 97 40% 1 19.04.2027 -
Chris Sze Wigan Athletic Ativo 77 / 91 40% 1 17.04.2027 -
Fin Roberts Crewe Alexandra Ativo 83 / 109 40% 1 12.04.2027 -
Hatem Grine ES Mostaganem Ativo 78 / 76 40% 1 09.04.2027 -
Aidan Dausch AC Ajaccio Ativo 60 / 73 40% 1 05.04.2027 -
Regan Hendry Mansfield Town Ativo 89 / 103 40% 1 03.12.2026 -
Will Spiers Cardiff City Ativo 92 / 103 40% 1 30.11.2026 -
Valmir Matoshi Sturm Graz Ativo 110 / 126 40% 1 27.11.2026 -
Silas Alfred Hibernians Ativo 48 / 81 40% 1 20.11.2026 -
Makan Samabaly KCB Ativo 87 / 108 40% 1 19.11.2026 -
Ishmael Addo Heart of Lions Ativo 69 / 71 40% 1 15.11.2026 -
Josh Austerfield Salford City Ativo 103 / 105 40% 1 15.11.2026 -
Augustine Afranie Bechem United Ativo 80 / 54 40% 1 12.11.2026 -
Daniel Chesters Salford City Ativo 93 / 81 40% 1 12.11.2026 -
Harrison Bettoni Wigan Athletic Ativo 70 / 116 40% 1 11.11.2026 -
Williams Wonah AS Korofina Ativo 86 / 101 40% 1 10.11.2026 -
Enock Morrison Gor Mahia Ativo 85 / 95 40% 1 08.11.2026 -
Marvin Nabwire Kenya Police Ativo 96 / 102 40% 1 07.10.2026 -
Bertrand Konfor Ngafei Bandari Ativo 99 / 94 40% 1 06.10.2026 -
Ntando Ngwenya Golden Arrows Ativo 69 / 94 40% 1 06.10.2026 -
Nikoloz Chikovani Watford Ativo 82 / 84 40% 1 31.08.2026 -
Oliver Armstrong Crewe Alexandra Ativo 96 / 76 40% 1 18.08.2026 -
Wisdom Samuel Rivers United Ativo 95 / 100 40% 1 18.08.2026 -
Dominic Ball Cambridge United Ativo 92 / 115 40% 1 01.08.2026 -